Location: Ermatingen
(47.6706°N, 9.0857°E)
Time: 01:31:37
(UTC+00:00)

Cosmos 1428 Rocket - Pass Details

Date: 01 December 2021
Orbit: 949 x 987 km, 82.9° (Epoch: 17 January)

Event Time Altitude Azimuth Distance (km) Brightness Sun altitude
Rises 19:13:57 0° 334° (NNW) 3,633 7.9 -36.2°
Reaches altitude 10° 19:18:09 10° 306° (NW) 2,685 7.4 -36.9°
Maximum altitude 19:20:25 12° 284° (WNW) 2,521 7.3 -37.3°
Drops below altitude 10° 19:22:42 10° 262° (W) 2,684 7.5 -37.7°
Sets 19:26:56 0° 234° (SW) 3,631 8.0 -38.4°
